Time,TemperatureF,DewpointF,PressureIn,WindDirection,WindDirectionDegrees,WindSpeedMPH,WindSpeedGustMPH,Humidity,HourlyPrecipIn,Conditions,Clouds,dailyrainin,SoftwareType,DateUTC
2013-03-16 00:00:00,65.1,48.4,27.08,ESE,112,19.7,19.7,36,0.00,,---,0.00,VWS V14.01,2013-03-16 06:00:00,
2013-03-16 00:05:00,65.3,48.4,27.08,SE,129,9.2,9.2,35,0.00,,---,0.00,VWS V14.01,2013-03-16 06:05:00,
2013-03-16 00:10:00,65.3,48.4,27.05,SE,126,15.4,17.0,35,0.00,,---,0.00,VWS V14.01,2013-03-16 06:10:00,
2013-03-16 00:15:00,65.3,48.4,27.05,SE,140,8.3,12.8,35,0.00,,---,0.00,VWS V14.01,2013-03-16 06:15:00,
2013-03-16 00:20:00,65.8,48.4,27.05,East,101,7.6,9.2,33,0.00,,---,0.00,VWS V14.01,2013-03-16 06:20:00,
2013-03-16 00:25:00,66.2,48.4,27.08,SSE,154,14.5,14.5,30,0.00,,---,0.00,VWS V14.01,2013-03-16 06:25:00,
2013-03-16 00:30:00,66.2,48.4,27.08,NNE,21,8.1,12.3,30,0.00,,---,0.00,VWS V14.01,2013-03-16 06:30:00,
2013-03-16 00:35:00,66.2,48.4,27.08,ESE,103,10.5,15.0,30,0.00,,---,0.00,VWS V14.01,2013-03-16 06:35:00,
2013-03-16 00:40:00,66.2,48.4,27.08,East,89,12.3,12.3,30,0.00,,---,0.00,VWS V14.01,2013-03-16 06:40:00,
2013-03-16 00:45:00,66.2,48.4,27.08,SE,125,12.3,16.8,30,0.00,,---,0.00,VWS V14.01,2013-03-16 06:45:00,
2013-03-16 00:50:00,66.2,48.4,27.08,ESE,118,11.9,15.0,30,0.00,,---,0.00,VWS V14.01,2013-03-16 06:50:00,
2013-03-16 00:55:00,66.2,48.4,27.05,NE,45,11.9,11.9,30,0.00,,---,0.00,VWS V14.01,2013-03-16 06:55:00,
2013-03-16 01:00:00,66.2,48.4,27.05,ESE,106,10.5,11.9,30,0.00,,---,0.00,VWS V14.01,2013-03-16 07:00:00,
2013-03-16 01:05:00,66.2,48.4,27.05,ENE,77,11.4,14.5,30,0.00,,---,0.00,VWS V14.01,2013-03-16 07:05:00,
2013-03-16 01:10:00,66.2,48.4,27.05,SE,131,8.1,10.5,30,0.00,,---,0.00,VWS V14.01,2013-03-16 07:10:00,
2013-03-16 01:15:00,66.2,48.4,27.05,ESE,110,10.5,10.5,30,0.00,,---,0.00,VWS V14.01,2013-03-16 07:15:00,
2013-03-16 01:20:00,66.2,48.4,27.05,South,177,6.3,13.2,30,0.00,,---,0.00,VWS V14.01,2013-03-16 07:20:00,
2013-03-16 01:25:00,66.6,48.4,27.05,ESE,108,10.5,15.4,27,0.00,,---,0.00,VWS V14.01,2013-03-16 07:25:00,
2013-03-16 01:30:00,66.6,48.4,27.05,East,84,10.1,10.1,27,0.00,,---,0.00,VWS V14.01,2013-03-16 07:30:00,
2013-03-16 01:35:00,66.2,48.4,27.05,SE,125,10.5,10.5,27,0.00,,---,0.00,VWS V14.01,2013-03-16 07:35:00,
2013-03-16 01:40:00,66.4,48.4,27.05,SE,133,7.6,7.6,27,0.00,,---,0.00,VWS V14.01,2013-03-16 07:40:00,
2013-03-16 01:45:00,66.4,48.4,27.05,ESE,122,11.0,11.0,27,0.00,,---,0.00,VWS V14.01,2013-03-16 07:45:00,
2013-03-16 01:50:00,66.6,48.4,27.05,SE,136,6.3,6.3,26,0.00,,---,0.00,VWS V14.01,2013-03-16 07:50:00,
2013-03-16 01:55:00,66.6,48.4,27.05,SE,141,10.1,10.1,26,0.00,,---,0.00,VWS V14.01,2013-03-16 07:55:00,
2013-03-16 02:00:00,66.9,48.4,27.05,SE,141,8.3,8.3,27,0.00,,---,0.00,VWS V14.01,2013-03-16 08:00:00,
2013-03-16 02:05:00,66.9,48.4,27.05,East,95,10.5,11.0,27,0.00,,---,0.00,VWS V14.01,2013-03-16 08:05:00,
2013-03-16 02:10:00,66.9,48.4,27.02,SSE,153,13.2,13.2,27,0.00,,---,0.00,VWS V14.01,2013-03-16 08:10:00,
2013-03-16 02:15:00,66.9,48.4,27.02,SE,124,12.8,12.8,27,0.00,,---,0.00,VWS V14.01,2013-03-16 08:15:00,
2013-03-16 02:20:00,66.9,48.4,27.02,East,81,10.5,14.5,27,0.00,,---,0.00,VWS V14.01,2013-03-16 08:20:00,
2013-03-16 02:25:00,66.9,48.4,27.02,SE,144,12.3,12.3,27,0.00,,---,0.00,VWS V14.01,2013-03-16 08:25:00,
2013-03-16 02:30:00,66.9,48.4,27.02,SSE,148,13.2,13.2,27,0.00,,---,0.00,VWS V14.01,2013-03-16 08:30:00,
2013-03-16 02:35:00,67.3,48.4,27.02,SE,131,12.3,15.4,28,0.00,,---,0.00,VWS V14.01,2013-03-16 08:35:00,
2013-03-16 02:40:00,67.8,48.4,27.02,SSE,154,10.5,11.0,32,0.00,,---,0.00,VWS V14.01,2013-03-16 08:40:00,
2013-03-16 02:45:00,68.2,48.4,27.02,ENE,71,10.1,10.1,32,0.00,,---,0.00,VWS V14.01,2013-03-16 08:45:00,
2013-03-16 02:50:00,68.2,48.4,27.02,SSE,168,14.5,28.4,32,0.00,,---,0.00,VWS V14.01,2013-03-16 08:50:00,
2013-03-16 02:55:00,68.2,48.4,27.02,ESE,113,16.8,16.8,32,0.00,,---,0.00,VWS V14.01,2013-03-16 08:55:00,
2013-03-16 03:00:00,68.4,48.4,27.02,SSE,150,12.8,12.8,30,0.00,,---,0.00,VWS V14.01,2013-03-16 09:00:00,
2013-03-16 03:05:00,68.4,48.4,27.02,East,88,14.1,14.1,30,0.00,,---,0.00,VWS V14.01,2013-03-16 09:05:00,
2013-03-16 03:10:00,68.4,48.4,27.05,East,100,9.2,13.2,30,0.00,,---,0.00,VWS V14.01,2013-03-16 09:10:00,
2013-03-16 03:15:00,68.4,48.4,27.05,SSE,154,8.7,11.0,30,0.00,,---,0.00,VWS V14.01,2013-03-16 09:15:00,
2013-03-16 03:20:00,68.4,48.4,27.05,SSE,150,8.7,10.1,30,0.00,,---,0.00,VWS V14.01,2013-03-16 09:20:00,
2013-03-16 03:25:00,67.6,48.4,27.05,SE,145,8.3,14.5,30,0.00,,---,0.00,VWS V14.01,2013-03-16 09:25:00,
2013-03-16 03:30:00,67.6,48.4,27.05,ESE,114,8.3,8.3,30,0.00,,---,0.00,VWS V14.01,2013-03-16 09:30:00,
2013-03-16 03:35:00,67.6,48.4,27.05,ESE,119,12.3,12.3,30,0.00,,---,0.00,VWS V14.01,2013-03-16 09:35:00,
2013-03-16 03:40:00,67.6,48.4,27.02,SE,125,10.5,13.2,30,0.00,,---,0.00,VWS V14.01,2013-03-16 09:40:00,
2013-03-16 03:45:00,67.6,48.4,27.02,SE,130,6.3,16.8,30,0.00,,---,0.00,VWS V14.01,2013-03-16 09:45:00,
2013-03-16 03:50:00,67.6,48.4,27.02,ESE,122,23.7,23.7,30,0.00,,---,0.00,VWS V14.01,2013-03-16 09:50:00,
2013-03-16 03:55:00,67.6,48.4,27.05,SE,138,5.8,15.4,30,0.00,,---,0.00,VWS V14.01,2013-03-16 09:55:00,
2013-03-16 04:00:00,67.6,48.4,27.05,East,81,16.3,16.3,33,0.00,,---,0.00,VWS V14.01,2013-03-16 10:00:00,
2013-03-16 04:05:00,67.3,48.4,27.05,SSE,148,8.3,12.8,33,0.00,,---,0.00,VWS V14.01,2013-03-16 10:05:00,
2013-03-16 04:10:00,67.3,48.4,27.05,SE,143,12.8,12.8,33,0.00,,---,0.00,VWS V14.01,2013-03-16 10:10:00,
2013-03-16 04:15:00,67.3,48.4,27.05,ENE,75,15.0,15.0,33,0.00,,---,0.00,VWS V14.01,2013-03-16 10:15:00,
2013-03-16 04:20:00,67.3,48.4,27.05,East,88,19.2,19.2,33,0.00,,---,0.00,VWS V14.01,2013-03-16 10:20:00,
2013-03-16 04:25:00,67.5,48.4,27.05,SSW,210,10.5,15.4,34,0.00,,---,0.00,VWS V14.01,2013-03-16 10:25:00,
2013-03-16 04:30:00,67.5,48.4,27.05,ESE,106,10.1,10.5,34,0.00,,---,0.00,VWS V14.01,2013-03-16 10:30:00,
2013-03-16 04:35:00,67.5,48.4,27.05,SSE,152,8.7,12.3,34,0.00,,---,0.00,VWS V14.01,2013-03-16 10:35:00,
2013-03-16 04:40:00,67.8,48.4,27.05,East,99,17.9,17.9,34,0.00,,---,0.00,VWS V14.01,2013-03-16 10:40:00,
2013-03-16 04:45:00,67.8,48.4,27.05,SE,142,11.9,14.5,34,0.00,,---,0.00,VWS V14.01,2013-03-16 10:45:00,
2013-03-16 04:50:00,68.0,48.4,27.05,East,100,19.2,19.2,33,0.00,,---,0.00,VWS V14.01,2013-03-16 10:50:00,
2013-03-16 04:55:00,68.0,48.4,27.05,SE,124,9.2,15.4,33,0.00,,---,0.00,VWS V14.01,2013-03-16 10:55:00,
2013-03-16 05:00:00,68.0,48.4,27.05,SSE,164,12.8,12.8,33,0.00,,---,0.00,VWS V14.01,2013-03-16 11:00:00,
2013-03-16 05:05:00,68.0,48.4,27.05,South,173,8.7,17.0,33,0.00,,---,0.00,VWS V14.01,2013-03-16 11:05:00,
2013-03-16 05:10:00,68.0,48.4,27.05,SSE,151,11.9,12.8,33,0.00,,---,0.00,VWS V14.01,2013-03-16 11:10:00,
2013-03-16 05:15:00,68.0,48.4,27.05,SE,145,11.0,17.9,33,0.00,,---,0.00,VWS V14.01,2013-03-16 11:15:00,
2013-03-16 05:20:00,68.0,48.4,27.05,SE,142,10.1,15.4,33,0.00,,---,0.00,VWS V14.01,2013-03-16 11:20:00,
2013-03-16 05:25:00,68.0,48.4,27.02,ENE,66,9.2,9.2,33,0.00,,---,0.00,VWS V14.01,2013-03-16 11:25:00,
2013-03-16 05:30:00,68.0,48.4,27.02,East,97,21.0,21.0,33,0.00,,---,0.00,VWS V14.01,2013-03-16 11:30:00,
2013-03-16 05:35:00,68.0,48.4,27.02,SSE,152,15.0,16.3,34,0.00,,---,0.00,VWS V14.01,2013-03-16 11:35:00,
2013-03-16 05:40:00,68.0,48.4,27.05,SE,142,15.4,15.4,34,0.00,,---,0.00,VWS V14.01,2013-03-16 11:40:00,
2013-03-16 05:45:00,68.0,48.4,27.05,ESE,123,8.3,16.8,34,0.00,,---,0.00,VWS V14.01,2013-03-16 11:45:00,
2013-03-16 05:50:00,68.0,48.4,27.05,SSE,150,5.4,11.9,34,0.00,,---,0.00,VWS V14.01,2013-03-16 11:50:00,
2013-03-16 05:55:00,68.0,48.4,27.05,SSW,207,16.8,16.8,34,0.00,,---,0.00,VWS V14.01,2013-03-16 11:55:00,
2013-03-16 06:00:00,68.0,48.4,27.05,ESE,106,9.6,12.3,34,0.00,,---,0.00,VWS V14.01,2013-03-16 12:00:00,
2013-03-16 06:05:00,68.0,48.4,27.05,SSE,154,17.9,17.9,34,0.00,,---,0.00,VWS V14.01,2013-03-16 12:05:00,
2013-03-16 06:10:00,68.0,48.4,27.05,ESE,114,13.2,14.5,34,0.00,,---,0.00,VWS V14.01,2013-03-16 12:10:00,
2013-03-16 06:15:00,68.0,48.4,27.05,South,169,15.0,15.0,34,0.00,,---,0.00,VWS V14.01,2013-03-16 12:15:00,
2013-03-16 06:20:00,68.0,48.4,27.05,ESE,118,6.3,17.0,34,0.00,,---,0.00,VWS V14.01,2013-03-16 12:20:00,
2013-03-16 06:25:00,68.0,48.4,27.05,SE,131,5.8,15.0,34,0.00,,---,0.00,VWS V14.01,2013-03-16 12:25:00,
2013-03-16 06:30:00,68.0,48.4,27.05,SSE,147,8.3,11.0,34,0.00,,---,0.00,VWS V14.01,2013-03-16 12:30:00,
2013-03-16 06:35:00,68.0,48.4,27.05,SE,145,19.7,20.6,34,0.00,,---,0.00,VWS V14.01,2013-03-16 12:35:00,
2013-03-16 06:40:00,68.0,48.4,27.05,East,86,8.7,12.3,34,0.00,,---,0.00,VWS V14.01,2013-03-16 12:40:00,
2013-03-16 06:45:00,68.0,48.4,27.05,SE,129,5.4,8.7,34,0.00,,---,0.00,VWS V14.01,2013-03-16 12:45:00,
2013-03-16 06:50:00,68.0,48.4,27.05,ESE,108,8.3,8.7,34,0.00,,---,0.00,VWS V14.01,2013-03-16 12:50:00,
2013-03-16 06:55:00,68.0,48.4,27.08,South,180,6.3,9.2,34,0.00,,---,0.00,VWS V14.01,2013-03-16 12:55:00,
2013-03-16 07:00:00,68.0,48.4,27.08,East,79,15.9,15.9,34,0.00,,---,0.00,VWS V14.01,2013-03-16 13:00:00,
2013-03-16 07:05:00,68.0,48.4,27.08,ESE,118,13.6,20.1,34,0.00,,---,0.00,VWS V14.01,2013-03-16 13:05:00,
2013-03-16 07:10:00,68.0,48.4,27.08,SSE,156,11.0,11.9,34,0.00,,---,0.00,VWS V14.01,2013-03-16 13:10:00,
2013-03-16 07:15:00,68.0,48.4,27.08,SE,143,8.3,13.2,34,0.00,,---,0.00,VWS V14.01,2013-03-16 13:15:00,
2013-03-16 07:20:00,68.0,48.4,27.08,ESE,109,13.2,13.2,34,0.00,,---,0.00,VWS V14.01,2013-03-16 13:20:00,
2013-03-16 07:25:00,68.0,48.4,27.11,ESE,112,8.3,8.3,34,0.00,,---,0.00,VWS V14.01,2013-03-16 13:25:00,
2013-03-16 07:30:00,68.0,48.4,27.11,South,173,21.5,21.5,34,0.00,,---,0.00,VWS V14.01,2013-03-16 13:30:00,
2013-03-16 07:35:00,68.0,48.4,27.11,SE,141,13.2,13.2,34,0.00,,---,0.00,VWS V14.01,2013-03-16 13:35:00,
2013-03-16 07:40:00,71.4,48.4,27.08,East,98,8.3,8.3,33,0.00,,---,0.00,VWS V14.01,2013-03-16 13:40:00,
2013-03-16 07:45:00,71.4,48.4,27.08,ESE,106,8.1,8.1,33,0.00,,---,0.00,VWS V14.01,2013-03-16 13:45:00,
2013-03-16 07:50:00,71.4,48.4,27.08,East,91,7.6,7.6,33,0.00,,---,0.00,VWS V14.01,2013-03-16 13:50:00,
2013-03-16 07:55:00,71.4,48.4,27.11,SSE,163,8.3,8.7,33,0.00,,---,0.00,VWS V14.01,2013-03-16 13:55:00,
2013-03-16 08:00:00,71.4,48.4,27.11,ESE,111,8.1,10.5,33,0.00,,---,0.00,VWS V14.01,2013-03-16 14:00:00,
2013-03-16 08:05:00,71.4,48.4,27.11,SSE,163,5.4,10.1,33,0.00,,---,0.00,VWS V14.01,2013-03-16 14:05:00,
2013-03-16 08:10:00,71.4,48.4,27.11,East,93,8.7,10.1,33,0.00,,---,0.00,VWS V14.01,2013-03-16 14:10:00,
2013-03-16 08:15:00,71.4,48.4,27.11,SSE,149,15.0,17.0,33,0.00,,---,0.00,VWS V14.01,2013-03-16 14:15:00,
2013-03-16 08:20:00,71.4,48.4,27.11,SE,144,7.6,7.6,33,0.00,,---,0.00,VWS V14.01,2013-03-16 14:20:00,
2013-03-16 08:25:00,71.4,48.4,27.11,ESE,105,11.4,14.5,33,0.00,,---,0.00,VWS V14.01,2013-03-16 14:25:00,
2013-03-16 08:30:00,71.4,48.4,27.11,SE,145,8.1,8.1,33,0.00,,---,0.00,VWS V14.01,2013-03-16 14:30:00,
2013-03-16 08:35:00,71.4,48.4,27.11,SE,125,15.0,15.0,33,0.00,,---,0.00,VWS V14.01,2013-03-16 14:35:00,
2013-03-16 08:40:00,71.4,48.4,27.11,SE,125,13.2,13.2,33,0.00,,---,0.00,VWS V14.01,2013-03-16 14:40:00,
2013-03-16 08:45:00,71.4,48.4,27.11,SE,124,10.1,15.4,33,0.00,,---,0.00,VWS V14.01,2013-03-16 14:45:00,
2013-03-16 08:50:00,71.4,48.4,27.11,SSE,149,5.4,10.5,33,0.00,,---,0.00,VWS V14.01,2013-03-16 14:50:00,
2013-03-16 08:55:00,71.4,48.4,27.14,East,94,5.4,13.2,33,0.00,,---,0.00,VWS V14.01,2013-03-16 14:55:00,
2013-03-16 09:00:00,71.4,48.4,27.14,NE,54,12.3,12.3,33,0.00,,---,0.00,VWS V14.01,2013-03-16 15:00:00,
2013-03-16 09:05:00,71.4,48.4,27.14,ENE,72,7.2,11.0,33,0.00,,---,0.00,VWS V14.01,2013-03-16 15:05:00,
2013-03-16 09:10:00,71.4,48.4,27.14,East,91,11.0,12.3,33,0.00,,---,0.00,VWS V14.01,2013-03-16 15:10:00,
2013-03-16 09:15:00,71.4,48.4,27.14,East,97,10.1,15.4,33,0.00,,---,0.00,VWS V14.01,2013-03-16 15:15:00,
2013-03-16 09:20:00,71.4,48.4,27.14,SE,130,8.3,11.0,33,0.00,,---,0.00,VWS V14.01,2013-03-16 15:20:00,
2013-03-16 09:25:00,71.4,48.4,27.14,ENE,77,19.7,19.7,33,0.00,,---,0.00,VWS V14.01,2013-03-16 15:25:00,
2013-03-16 09:30:00,71.4,48.4,27.14,WNW,295,11.4,12.3,33,0.00,,---,0.00,VWS V14.01,2013-03-16 15:30:00,
2013-03-16 09:35:00,71.4,48.4,27.14,ESE,115,10.5,16.3,33,0.00,,---,0.00,VWS V14.01,2013-03-16 15:35:00,
2013-03-16 09:40:00,71.4,48.4,27.14,East,88,10.5,10.5,33,0.00,,---,0.00,VWS V14.01,2013-03-16 15:40:00,
2013-03-16 09:45:00,71.4,48.4,27.14,ESE,114,8.1,8.1,33,0.00,,---,0.00,VWS V14.01,2013-03-16 15:45:00,
2013-03-16 09:50:00,71.4,48.4,27.14,ENE,61,11.9,11.9,33,0.00,,---,0.00,VWS V14.01,2013-03-16 15:50:00,
2013-03-16 09:55:00,71.4,48.4,27.14,ENE,77,13.2,13.2,33,0.00,,---,0.00,VWS V14.01,2013-03-16 15:55:00,
2013-03-16 10:00:00,71.4,48.4,27.14,SE,133,4.0,6.3,33,0.00,,---,0.00,VWS V14.01,2013-03-16 16:00:00,
2013-03-16 10:05:00,71.4,48.4,27.14,ESE,107,8.7,8.7,33,0.00,,---,0.00,VWS V14.01,2013-03-16 16:05:00,
2013-03-16 10:10:00,71.4,48.4,27.14,East,80,8.1,11.9,33,0.00,,---,0.00,VWS V14.01,2013-03-16 16:10:00,
2013-03-16 10:15:00,71.4,48.4,27.14,ESE,118,13.6,15.4,33,0.00,,---,0.00,VWS V14.01,2013-03-16 16:15:00,
2013-03-16 10:20:00,71.4,48.4,27.14,SE,126,4.0,10.5,33,0.00,,---,0.00,VWS V14.01,2013-03-16 16:20:00,
2013-03-16 10:25:00,71.4,48.4,27.14,ENE,74,9.2,13.2,33,0.00,,---,0.00,VWS V14.01,2013-03-16 16:25:00,
2013-03-16 10:30:00,71.4,48.4,27.14,ENE,61,6.7,15.4,33,0.00,,---,0.00,VWS V14.01,2013-03-16 16:30:00,
2013-03-16 10:35:00,71.4,48.4,27.14,SE,132,2.7,15.4,33,0.00,,---,0.00,VWS V14.01,2013-03-16 16:35:00,
2013-03-16 10:40:00,71.4,48.4,27.14,SE,138,4.0,8.1,33,0.00,,---,0.00,VWS V14.01,2013-03-16 16:40:00,
2013-03-16 10:45:00,71.4,48.4,27.14,East,88,12.8,12.8,33,0.00,,---,0.00,VWS V14.01,2013-03-16 16:45:00,
2013-03-16 10:50:00,75.0,48.4,27.14,East,83,12.8,12.8,36,0.00,,---,0.00,VWS V14.01,2013-03-16 16:50:00,
2013-03-16 10:55:00,75.0,48.4,27.14,NE,38,6.3,8.3,36,0.00,,---,0.00,VWS V14.01,2013-03-16 16:55:00,
2013-03-16 11:00:00,75.0,48.4,27.14,SSE,168,5.4,10.1,36,0.00,,---,0.00,VWS V14.01,2013-03-16 17:00:00,
2013-03-16 11:05:00,75.0,48.4,27.14,SSE,164,6.3,6.3,36,0.00,,---,0.00,VWS V14.01,2013-03-16 17:05:00,
2013-03-16 11:10:00,75.0,48.4,27.11,SSE,153,4.0,4.9,36,0.00,,---,0.00,VWS V14.01,2013-03-16 17:10:00,
2013-03-16 11:15:00,75.0,48.4,27.11,SE,135,8.7,8.7,36,0.00,,---,0.00,VWS V14.01,2013-03-16 17:15:00,
2013-03-16 11:20:00,75.0,48.4,27.11,East,98,4.9,16.3,36,0.00,,---,0.00,VWS V14.01,2013-03-16 17:20:00,
2013-03-16 11:25:00,75.0,48.4,27.11,East,95,5.8,8.7,36,0.00,,---,0.00,VWS V14.01,2013-03-16 17:25:00,
2013-03-16 11:30:00,75.0,48.4,27.11,ESE,117,7.6,8.3,36,0.00,,---,0.00,VWS V14.01,2013-03-16 17:30:00,
2013-03-16 11:35:00,75.0,48.4,27.11,East,84,3.6,8.1,36,0.00,,---,0.00,VWS V14.01,2013-03-16 17:35:00,
2013-03-16 11:40:00,75.0,48.4,27.11,East,98,5.4,10.1,36,0.00,,---,0.00,VWS V14.01,2013-03-16 17:40:00,
2013-03-16 11:45:00,75.0,48.4,27.11,East,101,8.1,15.0,36,0.00,,---,0.00,VWS V14.01,2013-03-16 17:45:00,
2013-03-16 11:50:00,75.0,48.4,27.11,SE,133,8.7,17.0,36,0.00,,---,0.00,VWS V14.01,2013-03-16 17:50:00,
2013-03-16 11:55:00,75.0,48.4,27.11,ESE,104,3.6,10.5,36,0.00,,---,0.00,VWS V14.01,2013-03-16 17:55:00,
2013-03-16 12:00:00,75.0,48.4,27.11,ESE,106,7.6,12.3,36,0.00,,---,0.00,VWS V14.01,2013-03-16 18:00:00,
2013-03-16 12:05:00,75.0,48.4,27.11,ESE,103,8.1,11.9,36,0.00,,---,0.00,VWS V14.01,2013-03-16 18:05:00,
2013-03-16 12:10:00,75.0,48.4,27.11,ESE,112,8.1,8.3,36,0.00,,---,0.00,VWS V14.01,2013-03-16 18:10:00,
2013-03-16 12:15:00,75.0,48.4,27.11,NE,56,7.6,8.3,36,0.00,,---,0.00,VWS V14.01,2013-03-16 18:15:00,
2013-03-16 12:20:00,75.0,48.4,27.11,East,90,8.3,15.0,36,0.00,,---,0.00,VWS V14.01,2013-03-16 18:20:00,
2013-03-16 12:25:00,75.0,48.4,27.11,SSE,165,11.0,11.4,36,0.00,,---,0.00,VWS V14.01,2013-03-16 18:25:00,
2013-03-16 12:30:00,75.0,48.4,27.11,ESE,118,5.4,8.7,36,0.00,,---,0.00,VWS V14.01,2013-03-16 18:30:00,
2013-03-16 12:35:00,75.0,48.4,27.11,East,99,11.0,12.8,36,0.00,,---,0.00,VWS V14.01,2013-03-16 18:35:00,
2013-03-16 12:40:00,75.0,48.4,27.11,SE,141,7.2,15.4,36,0.00,,---,0.00,VWS V14.01,2013-03-16 18:40:00,
2013-03-16 12:45:00,75.0,48.4,27.11,SE,145,8.7,8.7,36,0.00,,---,0.00,VWS V14.01,2013-03-16 18:45:00,
2013-03-16 12:50:00,75.0,48.4,27.11,SE,144,7.6,15.0,36,0.00,,---,0.00,VWS V14.01,2013-03-16 18:50:00,
2013-03-16 12:55:00,75.0,48.4,27.11,East,83,12.8,15.4,36,0.00,,---,0.00,VWS V14.01,2013-03-16 18:55:00,
2013-03-16 13:00:00,75.0,48.4,27.11,ESE,120,12.8,15.4,36,0.00,,---,0.00,VWS V14.01,2013-03-16 19:00:00,
2013-03-16 13:05:00,75.0,48.4,27.11,East,95,10.1,15.0,36,0.00,,---,0.00,VWS V14.01,2013-03-16 19:05:00,
2013-03-16 13:10:00,75.0,48.4,27.08,East,81,11.0,12.3,36,0.00,,---,0.00,VWS V14.01,2013-03-16 19:10:00,
2013-03-16 13:15:00,75.0,48.4,27.08,ESE,116,4.9,7.6,36,0.00,,---,0.00,VWS V14.01,2013-03-16 19:15:00,
2013-03-16 13:20:00,75.0,48.4,27.08,ESE,110,8.1,8.7,36,0.00,,---,0.00,VWS V14.01,2013-03-16 19:20:00,
2013-03-16 13:25:00,75.0,48.4,27.08,ESE,107,7.6,7.6,36,0.00,,---,0.00,VWS V14.01,2013-03-16 19:25:00,
2013-03-16 13:30:00,75.0,48.4,27.08,SE,124,5.4,6.3,36,0.00,,---,0.00,VWS V14.01,2013-03-16 19:30:00,
2013-03-16 13:35:00,75.0,48.4,27.08,East,101,4.9,6.3,36,0.00,,---,0.00,VWS V14.01,2013-03-16 19:35:00,
2013-03-16 13:40:00,75.0,48.4,27.08,SE,127,6.3,8.1,36,0.00,,---,0.00,VWS V14.01,2013-03-16 19:40:00,
2013-03-16 13:45:00,75.0,48.4,27.08,East,99,9.2,11.9,36,0.00,,---,0.00,VWS V14.01,2013-03-16 19:45:00,
2013-03-16 13:50:00,75.0,48.4,27.08,SE,129,8.7,8.7,36,0.00,,---,0.00,VWS V14.01,2013-03-16 19:50:00,
2013-03-16 13:55:00,75.0,48.4,27.08,ESE,109,10.5,10.5,36,0.00,,---,0.00,VWS V14.01,2013-03-16 19:55:00,
2013-03-16 14:00:00,75.0,48.4,27.08,ESE,103,5.8,15.9,36,0.00,,---,0.00,VWS V14.01,2013-03-16 20:00:00,
2013-03-16 14:05:00,75.0,48.4,27.08,SSE,167,4.0,6.3,36,0.00,,---,0.00,VWS V14.01,2013-03-16 20:05:00,
2013-03-16 14:10:00,75.0,48.4,27.08,ENE,69,11.0,11.4,36,0.00,,---,0.00,VWS V14.01,2013-03-16 20:10:00,
2013-03-16 14:15:00,75.0,48.4,27.08,ESE,116,5.4,14.5,36,0.00,,---,0.00,VWS V14.01,2013-03-16 20:15:00,
2013-03-16 14:20:00,75.0,48.4,27.08,SE,137,6.3,6.3,36,0.00,,---,0.00,VWS V14.01,2013-03-16 20:20:00,
2013-03-16 14:25:00,75.0,48.4,27.08,SE,125,6.3,8.1,36,0.00,,---,0.00,VWS V14.01,2013-03-16 20:25:00,
2013-03-16 14:30:00,75.0,48.4,27.08,SE,139,8.7,10.5,36,0.00,,---,0.00,VWS V14.01,2013-03-16 20:30:00,
2013-03-16 14:35:00,75.0,48.4,27.08,SSE,168,3.6,10.1,36,0.00,,---,0.00,VWS V14.01,2013-03-16 20:35:00,
2013-03-16 14:40:00,75.0,48.4,27.05,SSE,160,5.4,5.4,36,0.00,,---,0.00,VWS V14.01,2013-03-16 20:40:00,
2013-03-16 14:45:00,75.0,48.4,27.05,East,99,8.7,8.7,36,0.00,,---,0.00,VWS V14.01,2013-03-16 20:45:00,
2013-03-16 14:50:00,75.0,48.4,27.05,ENE,64,9.6,10.1,36,0.00,,---,0.00,VWS V14.01,2013-03-16 20:50:00,
2013-03-16 14:55:00,75.0,48.4,27.05,ESE,112,4.0,4.0,36,0.00,,---,0.00,VWS V14.01,2013-03-16 20:55:00,
2013-03-16 15:00:00,75.0,48.4,27.05,SE,136,5.4,5.4,36,0.00,,---,0.00,VWS V14.01,2013-03-16 21:00:00,
2013-03-16 15:05:00,75.0,48.4,27.05,East,98,9.2,9.2,36,0.00,,---,0.00,VWS V14.01,2013-03-16 21:05:00,
2013-03-16 15:10:00,75.0,48.4,27.05,ESE,123,9.6,10.1,36,0.00,,---,0.00,VWS V14.01,2013-03-16 21:10:00,
2013-03-16 15:15:00,75.0,48.4,27.05,ESE,108,5.4,6.3,36,0.00,,---,0.00,VWS V14.01,2013-03-16 21:15:00,
2013-03-16 15:20:00,75.0,48.4,27.05,ESE,105,11.9,11.9,36,0.00,,---,0.00,VWS V14.01,2013-03-16 21:20:00,
2013-03-16 15:25:00,75.0,48.4,27.05,ESE,109,7.6,7.6,36,0.00,,---,0.00,VWS V14.01,2013-03-16 21:25:00,
2013-03-16 15:30:00,75.0,48.4,27.05,SE,136,6.3,8.1,36,0.00,,---,0.00,VWS V14.01,2013-03-16 21:30:00,
2013-03-16 15:35:00,75.0,48.4,27.05,East,95,11.4,11.4,36,0.00,,---,0.00,VWS V14.01,2013-03-16 21:35:00,
2013-03-16 15:40:00,75.0,48.4,27.05,SSE,162,4.0,5.4,36,0.00,,---,0.00,VWS V14.01,2013-03-16 21:40:00,
2013-03-16 15:45:00,75.0,48.4,27.05,SE,141,6.3,6.3,36,0.00,,---,0.00,VWS V14.01,2013-03-16 21:45:00,
2013-03-16 15:50:00,75.0,48.4,27.05,ESE,106,4.0,8.1,36,0.00,,---,0.00,VWS V14.01,2013-03-16 21:50:00,
2013-03-16 15:55:00,75.0,48.4,27.05,ESE,119,4.5,4.5,36,0.00,,---,0.00,VWS V14.01,2013-03-16 21:55:00,
2013-03-16 16:00:00,75.0,48.4,27.05,ESE,107,8.7,14.1,36,0.00,,---,0.00,VWS V14.01,2013-03-16 22:00:00,
2013-03-16 16:05:00,75.0,48.4,27.05,East,96,5.4,5.4,36,0.00,,---,0.00,VWS V14.01,2013-03-16 22:05:00,
2013-03-16 16:10:00,75.0,48.4,27.08,SE,128,6.7,6.7,36,0.00,,---,0.00,VWS V14.01,2013-03-16 22:10:00,
2013-03-16 16:15:00,75.0,48.4,27.08,SE,131,8.3,8.3,36,0.00,,---,0.00,VWS V14.01,2013-03-16 22:15:00,
2013-03-16 16:20:00,75.0,48.4,27.08,ESE,104,13.2,13.2,36,0.00,,---,0.00,VWS V14.01,2013-03-16 22:20:00,
2013-03-16 16:25:00,75.0,48.4,27.08,SE,128,5.8,12.8,36,0.00,,---,0.00,VWS V14.01,2013-03-16 22:25:00,
2013-03-16 16:30:00,75.0,48.4,27.08,ESE,114,11.0,11.0,36,0.00,,---,0.00,VWS V14.01,2013-03-16 22:30:00,
2013-03-16 16:35:00,75.0,48.4,27.08,East,98,4.0,5.8,36,0.00,,---,0.00,VWS V14.01,2013-03-16 22:35:00,
2013-03-16 16:40:00,75.0,48.4,27.08,East,79,6.3,6.3,36,0.00,,---,0.00,VWS V14.01,2013-03-16 22:40:00,
2013-03-16 16:45:00,75.0,48.4,27.08,ESE,122,7.6,7.6,36,0.00,,---,0.00,VWS V14.01,2013-03-16 22:45:00,
2013-03-16 16:50:00,75.0,48.4,27.08,ESE,115,5.8,8.3,36,0.00,,---,0.00,VWS V14.01,2013-03-16 22:50:00,
2013-03-16 16:55:00,75.0,48.4,27.08,SSE,159,6.3,6.3,36,0.00,,---,0.00,VWS V14.01,2013-03-16 22:55:00,
2013-03-16 17:00:00,75.0,48.4,27.08,SE,126,4.0,4.9,36,0.00,,---,0.00,VWS V14.01,2013-03-16 23:00:00,
2013-03-16 17:05:00,75.0,48.4,27.08,SE,146,8.3,8.3,36,0.00,,---,0.00,VWS V14.01,2013-03-16 23:05:00,
2013-03-16 17:10:00,75.0,48.4,27.08,ESE,122,5.4,5.4,36,0.00,,---,0.00,VWS V14.01,2013-03-16 23:10:00,
2013-03-16 17:15:00,75.0,48.4,27.08,SSE,156,8.7,8.7,36,0.00,,---,0.00,VWS V14.01,2013-03-16 23:15:00,
2013-03-16 17:20:00,75.0,48.4,27.08,SE,141,9.2,9.2,36,0.00,,---,0.00,VWS V14.01,2013-03-16 23:20:00,
2013-03-16 17:25:00,75.0,48.4,27.08,SSE,154,5.8,6.7,36,0.00,,---,0.00,VWS V14.01,2013-03-16 23:25:00,
2013-03-16 17:30:00,75.0,48.4,27.08,ESE,108,5.8,6.3,36,0.00,,---,0.00,VWS V14.01,2013-03-16 23:30:00,
2013-03-16 17:35:00,75.0,48.4,27.08,SE,142,10.1,10.5,36,0.00,,---,0.00,VWS V14.01,2013-03-16 23:35:00,
2013-03-16 17:40:00,75.0,48.4,27.08,SE,139,4.0,4.9,36,0.00,,---,0.00,VWS V14.01,2013-03-16 23:40:00,
2013-03-16 17:45:00,75.0,48.4,27.08,SE,129,5.4,6.3,36,0.00,,---,0.00,VWS V14.01,2013-03-16 23:45:00,
2013-03-16 17:50:00,75.0,48.4,27.08,SSE,157,8.7,8.7,36,0.00,,---,0.00,VWS V14.01,2013-03-16 23:50:00,
2013-03-16 17:55:00,75.0,48.4,27.08,SE,141,8.1,8.1,36,0.00,,---,0.00,VWS V14.01,2013-03-16 23:55:00,
2013-03-16 18:00:00,75.0,48.4,27.08,East,98,9.6,10.1,36,0.00,,---,0.00,VWS V14.01,2013-03-17 00:00:00,
2013-03-16 18:05:00,75.0,48.4,27.08,ESE,104,11.9,11.9,36,0.00,,---,0.00,VWS V14.01,2013-03-17 00:05:00,
2013-03-16 18:10:00,75.0,48.4,27.11,East,90,8.1,8.1,36,0.00,,---,0.00,VWS V14.01,2013-03-17 00:10:00,
2013-03-16 18:15:00,75.0,48.4,27.11,East,98,12.3,12.3,36,0.00,,---,0.00,VWS V14.01,2013-03-17 00:15:00,
2013-03-16 18:20:00,75.0,48.4,27.11,SE,133,5.8,5.8,36,0.00,,---,0.00,VWS V14.01,2013-03-17 00:20:00,
2013-03-16 18:25:00,75.0,48.4,27.11,SE,136,4.0,4.0,36,0.00,,---,0.00,VWS V14.01,2013-03-17 00:25:00,
2013-03-16 18:30:00,75.0,48.4,27.11,East,100,7.6,7.6,36,0.00,,---,0.00,VWS V14.01,2013-03-17 00:30:00,
2013-03-16 18:35:00,75.0,48.4,27.11,ESE,118,10.1,10.1,36,0.00,,---,0.00,VWS V14.01,2013-03-17 00:35:00,
2013-03-16 18:40:00,75.0,48.4,27.11,SE,133,5.8,6.3,36,0.00,,---,0.00,VWS V14.01,2013-03-17 00:40:00,
2013-03-16 18:45:00,75.0,48.4,27.11,SE,131,4.9,4.9,36,0.00,,---,0.00,VWS V14.01,2013-03-17 00:45:00,
2013-03-16 18:50:00,75.0,48.4,27.11,SE,135,5.4,10.1,36,0.00,,---,0.00,VWS V14.01,2013-03-17 00:50:00,
2013-03-16 18:55:00,75.0,48.4,27.11,SSE,147,8.1,8.1,36,0.00,,---,0.00,VWS V14.01,2013-03-17 00:55:00,
2013-03-16 19:00:00,75.0,48.4,27.11,SSE,152,10.5,10.5,36,0.00,,---,0.00,VWS V14.01,2013-03-17 01:00:00,
2013-03-16 19:05:00,67.6,52.3,27.11,South,172,7.6,10.1,58,0.00,,---,0.00,VWS V14.01,2013-03-17 01:05:00,
2013-03-16 19:10:00,67.6,52.8,27.11,SSE,156,5.4,5.4,59,0.00,,---,0.00,VWS V14.01,2013-03-17 01:10:00,
2013-03-16 19:15:00,67.5,52.7,27.11,SSE,162,5.4,10.5,59,0.00,,---,0.00,VWS V14.01,2013-03-17 01:15:00,
2013-03-16 19:20:00,67.5,52.7,27.11,SSE,153,6.7,8.1,59,0.00,,---,0.00,VWS V14.01,2013-03-17 01:20:00,
2013-03-16 19:25:00,67.3,52.9,27.11,SE,143,7.6,7.6,60,0.00,,---,0.00,VWS V14.01,2013-03-17 01:25:00,
2013-03-16 19:30:00,67.1,52.8,27.11,SE,137,4.9,13.2,60,0.00,,---,0.00,VWS V14.01,2013-03-17 01:30:00,
2013-03-16 19:35:00,66.9,52.6,27.11,ESE,123,4.0,4.9,60,0.00,,---,0.00,VWS V14.01,2013-03-17 01:35:00,
2013-03-16 19:40:00,66.9,52.6,27.11,SE,142,4.9,5.4,60,0.00,,---,0.00,VWS V14.01,2013-03-17 01:40:00,
2013-03-16 19:45:00,66.7,52.4,27.11,SE,143,6.3,6.3,60,0.00,,---,0.00,VWS V14.01,2013-03-17 01:45:00,
2013-03-16 19:50:00,66.6,52.3,27.11,ESE,123,4.0,6.3,60,0.00,,---,0.00,VWS V14.01,2013-03-17 01:50:00,
2013-03-16 19:55:00,66.6,52.3,27.11,East,94,5.8,10.5,60,0.00,,---,0.00,VWS V14.01,2013-03-17 01:55:00,
2013-03-16 20:00:00,66.6,52.3,27.11,SE,140,7.6,7.6,60,0.00,,---,0.00,VWS V14.01,2013-03-17 02:00:00,
2013-03-16 20:05:00,66.6,52.3,27.11,SSE,148,10.1,10.1,60,0.00,,---,0.00,VWS V14.01,2013-03-17 02:05:00,
2013-03-16 20:10:00,66.6,52.3,27.11,SE,129,7.6,7.6,60,0.00,,---,0.00,VWS V14.01,2013-03-17 02:10:00,
2013-03-16 20:15:00,66.6,52.3,27.11,SE,130,6.7,7.6,60,0.00,,---,0.00,VWS V14.01,2013-03-17 02:15:00,
2013-03-16 20:20:00,66.6,52.3,27.11,East,100,5.8,5.8,60,0.00,,---,0.00,VWS V14.01,2013-03-17 02:20:00,
2013-03-16 20:25:00,66.6,52.3,27.14,South,173,8.3,8.3,60,0.00,,---,0.00,VWS V14.01,2013-03-17 02:25:00,
2013-03-16 20:30:00,66.6,52.3,27.14,East,89,7.6,7.6,60,0.00,,---,0.00,VWS V14.01,2013-03-17 02:30:00,
2013-03-16 20:35:00,66.6,52.3,27.14,ESE,108,10.5,10.5,60,0.00,,---,0.00,VWS V14.01,2013-03-17 02:35:00,
2013-03-16 20:40:00,66.6,52.3,27.14,ESE,103,6.3,8.1,60,0.00,,---,0.00,VWS V14.01,2013-03-17 02:40:00,
2013-03-16 20:45:00,66.6,52.3,27.14,ESE,112,6.3,6.7,60,0.00,,---,0.00,VWS V14.01,2013-03-17 02:45:00,
2013-03-16 20:50:00,66.6,52.3,27.14,ENE,73,5.4,6.3,60,0.00,,---,0.00,VWS V14.01,2013-03-17 02:50:00,
2013-03-16 20:55:00,66.6,52.3,27.14,ESE,112,7.6,9.2,60,0.00,,---,0.00,VWS V14.01,2013-03-17 02:55:00,
2013-03-16 21:00:00,66.6,52.3,27.14,ESE,121,5.8,5.8,60,0.00,,---,0.00,VWS V14.01,2013-03-17 03:00:00,
2013-03-16 21:05:00,66.6,52.3,27.14,SE,130,8.1,13.2,60,0.00,,---,0.00,VWS V14.01,2013-03-17 03:05:00,
2013-03-16 21:10:00,66.6,52.3,27.14,ESE,104,10.1,13.6,60,0.00,,---,0.00,VWS V14.01,2013-03-17 03:10:00,
2013-03-16 21:15:00,66.6,52.3,27.14,SE,133,6.7,6.7,60,0.00,,---,0.00,VWS V14.01,2013-03-17 03:15:00,
2013-03-16 21:20:00,66.6,52.3,27.14,SSE,162,7.6,7.6,60,0.00,,---,0.00,VWS V14.01,2013-03-17 03:20:00,
2013-03-16 21:25:00,66.6,52.3,27.14,East,96,10.1,12.8,60,0.00,,---,0.00,VWS V14.01,2013-03-17 03:25:00,
2013-03-16 21:30:00,66.6,52.3,27.14,ESE,117,6.3,8.1,60,0.00,,---,0.00,VWS V14.01,2013-03-17 03:30:00,
2013-03-16 21:35:00,66.6,52.3,27.14,East,81,5.4,8.7,60,0.00,,---,0.00,VWS V14.01,2013-03-17 03:35:00,
2013-03-16 21:40:00,66.6,52.3,27.14,SSE,155,8.1,8.1,60,0.00,,---,0.00,VWS V14.01,2013-03-17 03:40:00,
2013-03-16 21:45:00,66.6,52.3,27.14,East,90,5.8,5.8,60,0.00,,---,0.00,VWS V14.01,2013-03-17 03:45:00,
2013-03-16 21:50:00,66.6,52.3,27.14,South,183,3.6,3.6,60,0.00,,---,0.00,VWS V14.01,2013-03-17 03:50:00,
2013-03-16 21:55:00,66.6,52.3,27.14,SE,145,6.3,7.6,60,0.00,,---,0.00,VWS V14.01,2013-03-17 03:55:00,
2013-03-16 22:00:00,66.6,52.3,27.14,SE,129,5.4,5.4,60,0.00,,---,0.00,VWS V14.01,2013-03-17 04:00:00,
2013-03-16 22:05:00,65.8,53.3,27.14,East,87,5.4,10.5,64,0.00,,---,0.00,VWS V14.01,2013-03-17 04:05:00,
2013-03-16 22:10:00,65.8,53.3,27.14,ESE,111,11.0,11.0,64,0.00,,---,0.00,VWS V14.01,2013-03-17 04:10:00,
2013-03-16 22:15:00,65.8,53.3,27.14,SE,146,8.1,8.1,64,0.00,,---,0.00,VWS V14.01,2013-03-17 04:15:00,
2013-03-16 22:20:00,65.8,52.5,27.14,South,175,15.0,15.0,62,0.00,,---,0.00,VWS V14.01,2013-03-17 04:20:00,
2013-03-16 22:25:00,66.0,52.6,27.14,SSE,147,13.2,13.2,62,0.00,,---,0.00,VWS V14.01,2013-03-17 04:25:00,
2013-03-16 22:30:00,66.0,52.6,27.14,East,83,5.8,8.1,62,0.00,,---,0.00,VWS V14.01,2013-03-17 04:30:00,
2013-03-16 22:35:00,66.0,52.6,27.14,SE,126,5.4,10.1,62,0.00,,---,0.00,VWS V14.01,2013-03-17 04:35:00,
2013-03-16 22:40:00,66.0,52.6,27.14,ESE,111,5.4,5.4,62,0.00,,---,0.00,VWS V14.01,2013-03-17 04:40:00,
2013-03-16 22:45:00,66.0,52.6,27.14,East,88,8.7,8.7,62,0.00,,---,0.00,VWS V14.01,2013-03-17 04:45:00,
2013-03-16 22:50:00,66.0,52.6,27.14,SE,137,6.3,12.8,62,0.00,,---,0.00,VWS V14.01,2013-03-17 04:50:00,
2013-03-16 22:55:00,66.0,52.6,27.14,ESE,112,11.0,11.0,62,0.00,,---,0.00,VWS V14.01,2013-03-17 04:55:00,
2013-03-16 23:00:00,66.0,52.6,27.14,ESE,108,6.3,8.3,62,0.00,,---,0.00,VWS V14.01,2013-03-17 05:00:00,
2013-03-16 23:05:00,66.0,52.6,27.14,ENE,69,6.3,9.2,62,0.00,,---,0.00,VWS V14.01,2013-03-17 05:05:00,
2013-03-16 23:10:00,66.0,52.6,27.14,SE,131,4.0,6.3,62,0.00,,---,0.00,VWS V14.01,2013-03-17 05:10:00,
2013-03-16 23:15:00,66.0,52.6,27.14,SE,127,2.7,4.9,62,0.00,,---,0.00,VWS V14.01,2013-03-17 05:15:00,
2013-03-16 23:20:00,66.0,52.6,27.14,SE,126,5.4,6.3,62,0.00,,---,0.00,VWS V14.01,2013-03-17 05:20:00,
2013-03-16 23:25:00,66.0,52.6,27.14,East,86,8.7,8.7,62,0.00,,---,0.00,VWS V14.01,2013-03-17 05:25:00,
2013-03-16 23:30:00,66.0,52.6,27.14,East,100,8.1,8.3,62,0.00,,---,0.00,VWS V14.01,2013-03-17 05:30:00,
2013-03-16 23:35:00,66.0,52.6,27.14,SE,134,3.6,7.2,62,0.00,,---,0.00,VWS V14.01,2013-03-17 05:35:00,
2013-03-16 23:40:00,66.0,52.6,27.11,SE,144,7.6,10.5,62,0.00,,---,0.00,VWS V14.01,2013-03-17 05:40:00,
2013-03-16 23:45:00,66.0,52.6,27.11,SE,128,5.8,8.3,62,0.00,,---,0.00,VWS V14.01,2013-03-17 05:45:00,
2013-03-16 23:50:00,66.0,52.6,27.11,SE,145,5.4,6.3,62,0.00,,---,0.00,VWS V14.01,2013-03-17 05:50:00,
2013-03-16 23:55:00,66.0,52.6,27.11,East,84,8.3,10.1,62,0.00,,---,0.00,VWS V14.01,2013-03-17 05:55:00,